TimeCST,TemperatureF,Dew PointF,Humidity,Sea Level PressureIn,VisibilityMPH,Wind Direction,Wind SpeedMPH,Gust SpeedMPH,PrecipitationIn,Events,Conditions,WindDirDegrees,DateUTC
12:52 AM,26.1,14.0,60,30.19,10.0,South,15.0,-,N/A,,Clear,180,2012-12-30 06:52:00
1:52 AM,26.1,14.0,60,30.17,10.0,South,13.8,-,N/A,,Clear,180,2012-12-30 07:52:00
2:52 AM,27.0,12.9,56,30.16,10.0,South,12.7,-,N/A,,Clear,190,2012-12-30 08:52:00
3:52 AM,27.0,14.0,58,30.14,10.0,South,20.7,27.6,N/A,,Clear,190,2012-12-30 09:52:00
4:52 AM,28.9,14.0,54,30.13,10.0,South,18.4,-,N/A,,Clear,190,2012-12-30 10:52:00
5:52 AM,28.9,14.0,54,30.12,10.0,South,18.4,-,N/A,,Clear,190,2012-12-30 11:52:00
6:52 AM,28.9,14.0,54,30.14,10.0,South,18.4,-,N/A,,Clear,190,2012-12-30 12:52:00
7:52 AM,28.9,15.1,56,30.12,10.0,South,17.3,-,N/A,,Clear,190,2012-12-30 13:52:00
8:52 AM,30.9,15.1,52,30.13,10.0,SSW,24.2,32.2,N/A,,Clear,200,2012-12-30 14:52:00
9:52 AM,34.0,16.0,48,30.13,10.0,SSW,23.0,32.2,N/A,,Clear,200,2012-12-30 15:52:00
10:52 AM,37.0,16.0,42,30.13,10.0,SSW,25.3,32.2,N/A,,Clear,200,2012-12-30 16:52:00
11:52 AM,42.1,16.0,35,30.09,10.0,SSW,26.5,38.0,N/A,,Clear,210,2012-12-30 17:52:00
12:52 PM,46.0,14.0,28,30.06,10.0,SSW,27.6,36.8,N/A,,Clear,210,2012-12-30 18:52:00
1:52 PM,46.0,15.1,29,30.05,10.0,SW,21.9,34.5,N/A,,Clear,220,2012-12-30 19:52:00
2:52 PM,45.0,15.1,30,30.05,10.0,SSW,16.1,24.2,N/A,,Clear,210,2012-12-30 20:52:00
3:52 PM,44.1,15.1,31,30.05,10.0,SSW,13.8,24.2,N/A,,Partly Cloudy,210,2012-12-30 21:52:00
4:52 PM,41.0,15.1,35,30.04,10.0,South,10.4,-,N/A,,Clear,180,2012-12-30 22:52:00
5:52 PM,36.0,16.0,44,30.04,10.0,SE,5.8,-,N/A,,Clear,130,2012-12-30 23:52:00
6:52 PM,37.0,15.1,41,30.06,10.0,South,5.8,-,N/A,,Clear,170,2012-12-31 00:52:00
7:52 PM,36.0,15.1,43,30.06,10.0,South,4.6,-,N/A,,Partly Cloudy,170,2012-12-31 01:52:00
8:52 PM,36.0,16.0,44,30.05,10.0,South,10.4,-,N/A,,Clear,170,2012-12-31 02:52:00
9:52 PM,35.1,16.0,46,30.05,10.0,SSE,6.9,-,N/A,,Scattered Clouds,160,2012-12-31 03:52:00
10:52 PM,35.1,16.0,46,30.05,10.0,SSE,13.8,-,N/A,,Overcast,160,2012-12-31 04:52:00
11:52 PM,33.1,21.9,64,30.07,10.0,South,8.1,-,0.00,,Overcast,190,2012-12-31 05:52:00